Location: *
(51.1248°S, 108.4023°W)
Time: 03:38:43
(UTC+00:00)

Feng Yun 1-1 Rocket - Pass Details

Date: 15 June 2021
Orbit: 830 x 933 km, 99.2° (Epoch: 31 July)

Event Time Altitude Azimuth Distance (km) Brightness Sun altitude
Rises 13:28:43 0° 17° (NNE) 3,526 7.9 -15.8°
Reaches altitude 10° 13:31:09 10° 16° (NNE) 2,578 7.2 -15.4°
Maximum altitude 13:36:54 85° 287° (WNW) 900 4.3 -14.6°
Drops below altitude 10° 13:42:35 10° 197° (SSW) 2,538 6.3 -13.7°
Enters shadow 13:44:39 - 196° (SSW) 3,349 7.0 -13.4°
